This demonstration page uses our WeatherBlox Daily Observations layout. Learn more.

Left ArrowRight Arrow

39.01783, -85.05884

Hourly Observations for March 3, 2015

Temp ( °F °C ) Dew Point ( °F °C ) Humidity (%) Winds ( mph kmh ) Pressure ( in mb ) Visibility ( mi km ) Precip ( " mm )
12:52 am 00:52 Cloudy 27 -2.8 15 -9.4 61 61 E 7 11 30.27 1025 10 16 0.00 0.00
1:52 am 01:52 Cloudy 27 -2.8 14 -10 58 58 E 6 9 30.28 1025 10 16 0.00 0.00
2:52 am 02:52 Cloudy 27 -2.8 15 -9.4 61 61 E 8 13 30.24 1024 10 16 0.00 0.00
3:52 am 03:52 Cloudy 27 -2.8 16 -8.9 63 63 E 6 9 30.22 1023 10 16 0.00 0.00
4:52 am 04:52 Cloudy 28 -2.2 17 -8.3 63 63 E 7 11 30.19 1023 10 16 0.00 0.00
5:52 am 05:52 Cloudy 28 -2.2 17 -8.3 63 63 ESE 8 13 30.14 1021 10 16 0.00 0.00
6:52 am 06:52 Cloudy 29 -1.7 19 -7.2 66 66 SSE 9 15 30.11 1020 10 16 0.00 0.00
7:52 am 07:52 Cloudy 31 -0.6 20 -6.7 64 64 SSE 8 13 30.10 1019 10 16 0.00 0.00
8:06 am 08:06 Cloudy 30 -1 19 -7 64 64 SE 12 19 30.12 1020 10 16 0.00 0.00
8:52 am 08:52 Cloudy 32 0 22 -5.6 66 66 SSE 9 15 30.09 1019 9 14 0.00 0.00
9:22 am 09:22 Cloudy with Light Rain 34 1 23 -5 65 65 SSE 6 9 30.06 1018 5 8 0.00 0.03
9:52 am 09:52 Cloudy with Light Rain 33 0.6 25 -3.9 72 72 SSE 7 11 30.04 1017 7 11 0.00 0.03
10:24 am 10:24 Cloudy with Light Rain 34 1 27 -3 75 75 SSE 10 17 30.03 1017 3 5 0.00 0.00
10:37 am 10:37 Cloudy with Light Rain 34 1 28 -2 81 81 S 9 15 30.00 1016 3 4 0.00 0.03
10:52 am 10:52 Cloudy with Light Rain 33 0.6 29 -1.7 85 85 SSE 9 15 29.98 1015 3 4 0.01 0.25
11:38 am 11:38 Cloudy with Light Rain 36 2 32 0 87 87 S 12 19 29.94 1014 1 2 0.00 0.00
11:52 am 11:52 Cloudy with Light Rain 36 2.2 33 0.6 89 89 S 13 20 29.92 1013 2 3 0.03 0.76
12:31 pm 12:31 Cloudy with Light Rain 37 3 36 2 93 93 S 12 19 29.91 1013 2 2 0.01 0.25
12:47 pm 12:47 Cloudy with Light Rain 39 4 37 3 93 93 S 12 19 29.91 1013 2 2 0.03 0.76
12:52 pm 12:52 Cloudy with Light Rain 39 3.9 37 2.8 93 93 S 15 24 29.88 1012 2 2 0.03 0.76
1:30 pm 13:30 Cloudy with Mist and Fog 43 6 39 4 87 87 SSW 13 20 29.85 1011 0 0 0.01 0.25
2:52 pm 14:52 Cloudy with Heavy Rain 44 6.7 42 5.6 93 93 SSW 13 20 29.79 1009 0 0 0.13 3.30
3:33 pm 15:33 Cloudy with Rain 46 8 45 7 93 93 SSW 15 24 29.77 1008 0 0 0.20 5.08
3:52 pm 15:52 Cloudy with Rain 47 8.3 46 7.8 97 97 SSW 15 24 29.77 1008 0 0 0.27 6.86
4:31 pm 16:31 Cloudy with Light Rain 48 9 48 9 100 100 SW 9 15 29.77 1008 0 0 0.18 4.57
4:52 pm 16:52 Cloudy with Heavy Rain 45 7.2 44 6.7 97 97 W 12 19 29.78 1009 0 0 0.28 7.11
5:17 pm 17:17 Cloudy with Light Rain 48 9 46 8 94 94 WSW 8 13 29.77 1008 0 0 0.06 1.52
5:52 pm 17:52 Cloudy with Light Rain 50 10 48 8.9 93 93 WSW 10 17 29.77 1008 4 6 0.07 1.78
6:28 pm 18:28 Cloudy with Light Rain 48 9 46 8 94 94 W 12 19 29.77 1008 4 6 0.00 0.00
6:52 pm 18:52 Cloudy with Light Rain 50 10 48 8.9 93 93 W 15 24 29.80 1009 5 8 0.04 1.02
7:52 pm 19:52 Cloudy with Light Rain 48 8.9 46 7.8 93 93 W 16 26 29.83 1010 6 10 0.04 1.02
8:52 pm 20:52 Cloudy with Light Rain 46 7.8 44 6.7 93 93 W 10 17 29.84 1011 5 8 0.06 1.52
9:35 pm 21:35 Cloudy with Light Rain 45 7 43 6 93 93 W 13 20 29.85 1011 9 14 0.04 1.02
9:52 pm 21:52 Cloudy with Light Rain 45 7.2 43 6.1 93 93 WSW 7 11 29.85 1011 8 13 0.05 1.27
10:39 pm 22:39 Cloudy with Light Rain 45 7 41 5 87 87 W 10 17 29.88 1012 6 10 0.02 0.51
10:52 pm 22:52 Cloudy with Rain 42 5.6 40 4.4 92 92 WNW 10 17 29.86 1011 5 8 0.03 0.76
10:57 pm 22:57 Cloudy with Rain 43 6 39 4 87 87 WNW 9 15 29.88 1012 4 6 0.01 0.25
11:52 pm 23:52 Cloudy with Rain 41 5 38 3.3 89 89 WNW 10 17 29.85 1011 4 6 0.11 2.79

Powered by AerisWeather